EW5042 Weather Reports


time (UTC)temp
C
wind
direction
speed
KPH
gust
KPH
rain 1hr
cm
rain 24hr
cm
rain mn
cm
humidity
%
barometer
mb
20260505041600 13 21 0.0 0.0 0.00 0.00 0.00 73 1015.7
20260505040055 14 21 0.0 0.0 0.00 0.00 0.00 72 1015.7
20260505034551 13 20 0.0 0.0 0.00 0.00 0.00 71 1015.7
20260505033049 14 20 0.0 0.0 0.00 0.00 0.00 71 1015.6
20260505031544 14 20 0.0 0.0 0.00 0.00 0.00 70 1015.7
20260505030040 14 20 0.0 0.0 0.00 0.00 0.00 70 1015.7
20260505024538 13 20 0.0 0.0 0.00 0.00 0.00 69 1015.8
20260505023035 13 20 0.0 0.0 0.00 0.00 0.00 69 1016.0
20260505021532 13 20 0.0 0.0 0.00 0.00 0.00 69 1016.1
20260505020030 13 20 0.0 0.0 0.00 0.00 0.00 69 1016.1
20260505014528 13 20 0.0 0.0 0.00 0.00 0.00 69 1016.2
20260505013027 13 20 0.0 0.0 0.00 0.00 0.00 69 1016.4
20260505011528 13 21 0.0 0.0 0.00 0.00 0.00 70 1016.5
20260505010025 12 21 0.0 0.0 0.00 0.00 0.00 70 1016.5
20260505004525 12 21 0.0 0.0 0.00 0.00 0.00 70 1016.5
20260505003023 12 21 0.0 0.0 0.00 0.00 0.00 70 1016.6
20260505001521 12 21 0.0 0.0 0.00 0.00 0.00 69 1016.7
20260505000020 12 21 0.0 0.0 0.00 0.00 0.00 69 1016.8
20260504234518 12 21 0.0 0.0 0.00 0.00 0.00 69 1016.9
20260504233016 13 21 0.0 0.0 0.00 0.00 0.00 70 1017.2
20260504231514 12 21 0.0 0.0 0.00 0.00 0.00 70 1017.4
20260504230015 12 21 0.0 0.0 0.00 0.00 0.00 70 1017.5
20260504224513 13 21 0.0 0.0 0.00 0.00 0.00 71 1017.5
20260504223012 13 21 0.0 0.0 0.00 0.00 0.00 71 1017.7
20260504221516 13 21 0.0 0.0 0.00 0.00 0.00 71 1017.7
20260504220009 13 21 0.0 0.0 0.00 0.00 0.00 71 1017.6
20260504214508 13 21 0.0 0.0 0.00 0.00 0.00 71 1017.7
20260504213009 13 21 0.0 0.0 0.00 0.00 0.00 71 1017.7
20260504211508 13 21 0.0 0.0 0.00 0.00 0.00 72 1017.7
20260504210007 13 21 0.0 0.0 0.00 0.00 0.00 72 1017.6
20260504204506 13 21 0.0 0.0 0.00 0.00 0.00 74 1017.8
20260504203010 13 21 0.0 0.0 0.00 0.00 0.00 74 1017.8
20260504201507 13 21 0.0 0.0 0.00 0.00 0.00 75 1018.0
20260504200005 14 21 0.0 0.0 0.00 0.00 0.00 76 1017.9
20260504194505 14 21 0.0 0.0 0.00 0.00 0.00 76 1018.0
20260504193006 15 21 0.0 0.0 0.00 0.00 0.00 77 1017.9
20260504191515 15 21 0.0 0.0 0.00 0.00 0.00 77 1017.8
20260504190004 15 21 0.0 0.0 0.00 0.00 0.00 77 1017.7
20260504184503 16 21 0.0 0.0 0.00 0.00 0.00 77 1017.6
20260504183000 16 21 0.0 0.0 0.00 0.00 0.00 76 1017.5
20260504181600 16 21 0.0 0.0 0.00 0.00 0.00 75 1017.4
20260504174609 17 20 0.0 0.0 0.00 0.00 0.00 71 1017.2
20260504173105 18 20 0.0 0.0 0.00 0.00 0.00 69 1017.1
20260504171557 18 20 0.0 0.0 0.00 0.00 0.00 68 1017.1
20260504170105 18 20 0.0 1.6 0.00 0.00 0.00 66 1017.0
20260504081524 21 336 0.0 6.4 0.00 0.00 0.00 41 1019.2